Location: Malanoce
(44.2500°N, 7.4667°E)
Time: 00:56:38
(UTC+00:00)

BlueWalker 3 - Pass Details

Date: 27 January 2026
Orbit: 450 x 461 km, 53.2° (Epoch: 7 February)

Event Time Altitude Azimuth Distance (km) Brightness Sun altitude
Rises 18:39:02 0° 287° (WNW) 2,457 6.6 -22.6°
Reaches altitude 10° 18:41:35 10° 306° (NW) 1,584 5.1 -23.0°
Enters shadow 18:43:44 19° 342° (NNW) 1,143 3.9 -23.4°
